St. Joseph, KS

9:08 AM CDT on October 21, 2019 (GMT -0500)
Rosecrans Memorial

Weather History for KSTJ - September, 2019

Change the Weather History Date:

Monday, September 16, 2019

  Actual Average Record
Temperature  
Mean Temperature 81 °F 66 °F  
Max Temperature 91 °F 79 °F 99 °F (1931)
Min Temperature 70 °F 54 °F 38 °F (1999)
Degree Days  
Heating Degree Days 0 2  
Month to date heating degree days 0 18  
Since 1 July heating degree days 0 23  
Cooling Degree Days 16 4  
Month to date cooling degree days 182 85  
Year to date cooling degree days 1326 1162  
Growing Degree Days 30 (Base 50)    
Moisture  
Dew Point 70 °F    
Average Humidity 71    
Maximum Humidity 93    
Minimum Humidity 49    
Precipitation  
Precipitation 0.00 in 0.10 in 2.03 in (1936)
Month to date precipitation 1.47 2.07  
Year to date precipitation 30.74 28.37  
Sea Level Pressure  
Sea Level Pressure 30.01 in    
Wind  
Wind Speed 5 mph (South)    
Max Wind Speed 12 mph    
Max Gust Speed 16 mph    
Visibility 9 miles    
Events      
T = Trace of Precipitation, MM = Missing Value Source: NWS Daily Summary

Daily Weather History Graph

Daily Weather History Graph

Search for Another Location

Airport or City:

Astronomy

Sep. 16, 2019 Rise Set
Actual Time 7:01 AM CDT 7:26 PM CDT
Civil Twilight 6:34 AM CDT 7:53 PM CDT
Nautical Twilight 6:02 AM CDT 8:25 PM CDT
Astronomical Twilight 5:29 AM CDT 8:58 PM CDT
Moon 9:02 PM CDT (9/16) 9:09 AM CDT (9/16)
Length of Visible Light 13h 19m
Length of Day
12h 25m
Waning Gibbous, 94% of the Moon is Illuminated
Sep 16
Waning Gibbous
Sep 21
Last Quarter
Sep 28
New
Oct 5
First Quarter
Oct 13
Full

Hourly Weather History & Observations

Time (CDT) Temp. Heat Index Dew Point Humidity Pressure Visibility Wind Dir Wind Speed Gust Speed Precip Events Conditions
12:53 AM 73.0 °F - 71.1 °F 93% 29.99 in 8.0 mi Calm Calm - N/A   Clear
1:53 AM 72.0 °F - 70.0 °F 93% 30.00 in 8.0 mi Calm Calm - N/A   Clear
2:53 AM 72.0 °F - 68.0 °F 87% 30.01 in 8.0 mi SSE 3.5 mph - N/A   Clear
3:53 AM 71.1 °F - 68.0 °F 90% 30.01 in 9.0 mi Calm Calm - N/A   Clear
4:53 AM 70.0 °F - 66.9 °F 90% 30.02 in 9.0 mi Calm Calm - N/A   Clear
5:53 AM 71.1 °F - 66.9 °F 87% 30.03 in 9.0 mi SSE 4.6 mph - N/A   Clear
6:53 AM 70.0 °F - 66.9 °F 90% 30.04 in 9.0 mi SSE 3.5 mph - N/A   Clear
7:53 AM 72.0 °F - 69.1 °F 91% 30.06 in 7.0 mi SSE 4.6 mph - N/A   Scattered Clouds
8:53 AM 75.9 °F - 70.0 °F 82% 30.07 in 8.0 mi South 3.5 mph - N/A   Clear
9:53 AM 80.1 °F 83.2 °F 70.0 °F 71% 30.07 in 9.0 mi South 5.8 mph - N/A   Clear
10:53 AM 84.0 °F 89.0 °F 71.1 °F 65% 30.06 in 9.0 mi SSW 8.1 mph - N/A   Clear
11:53 AM 88.0 °F 93.8 °F 71.1 °F 57% 30.05 in 10.0 mi SW 6.9 mph - N/A   Clear
12:53 PM 89.1 °F 95.0 °F 71.1 °F 55% 30.04 in 10.0 mi SSW 9.2 mph - N/A   Clear
1:53 PM 90.0 °F 95.4 °F 70.0 °F 52% 30.01 in 10.0 mi SSW 8.1 mph - N/A   Clear
2:53 PM 91.0 °F 96.6 °F 70.0 °F 50% 30.00 in 10.0 mi South 9.2 mph - N/A   Clear
3:53 PM 90.0 °F 95.4 °F 70.0 °F 52% 29.99 in 10.0 mi South 8.1 mph - N/A   Clear
4:53 PM 88.0 °F 93.8 °F 71.1 °F 57% 29.99 in 10.0 mi SSW 8.1 mph - N/A   Clear
5:53 PM 84.9 °F 90.7 °F 72.0 °F 65% 29.98 in 10.0 mi South 5.8 mph - N/A   Clear
6:53 PM 84.9 °F 90.7 °F 72.0 °F 65% 29.98 in 10.0 mi SE 6.9 mph - N/A   Clear
7:53 PM 81.0 °F 84.9 °F 71.1 °F 72% 29.98 in 10.0 mi SE 5.8 mph - N/A   Clear
8:53 PM 79.0 °F - 71.1 °F 77% 29.99 in 9.0 mi SE 4.6 mph - N/A   Clear
9:53 PM 75.9 °F - 71.1 °F 85% 29.99 in 9.0 mi Calm Calm - N/A   Clear
10:53 PM 73.0 °F - 70.0 °F 90% 30.00 in 8.0 mi Calm Calm - N/A   Clear
11:53 PM 75.0 °F - 69.1 °F 82% 29.99 in 9.0 mi South 5.8 mph - N/A   Clear